FW9002 Weather Reports


time (UTC)temp
C
wind
direction
speed
KPH
gust
KPH
rain 1hr
cm
rain 24hr
cm
rain mn
cm
humidity
%
barometer
mb
20260509203447 36 256 6.4 8.0 0.00 0.00 0.00 10 1010.0
20260509202945 36 283 3.2 4.8 0.00 0.00 0.00 11 1010.1
20260509202441 36 308 4.8 4.8 0.00 0.00 0.00 10 1010.0
20260509201936 36 303 6.4 8.0 0.00 0.00 0.00 11 1010.0
20260509201431 36 312 6.4 16.1 0.00 0.00 0.00 11 1010.2
20260509200929 36 287 9.7 12.9 0.00 0.00 0.00 10 1010.3
20260509200428 36 10 8.0 12.9 0.00 0.00 0.00 10 1010.6
20260509195926 36 326 8.0 11.3 0.00 0.00 0.00 11 1010.5
20260509195421 36 355 6.4 11.3 0.00 0.00 0.00 11 1010.6
20260509194920 36 313 3.2 3.2 0.00 0.00 0.00 11 1010.7
20260509194417 35 291 8.0 11.3 0.00 0.00 0.00 11 1010.7
20260509193914 36 290 8.0 9.7 0.00 0.00 0.00 11 1010.6
20260509193413 36 322 4.8 4.8 0.00 0.00 0.00 11 1010.9
20260509192910 35 298 4.8 3.2 0.00 0.00 0.00 12 1010.7
20260509192406 35 325 8.0 9.7 0.00 0.00 0.00 12 1010.9
20260509191901 35 259 6.4 8.0 0.00 0.00 0.00 12 1011.1
20260509191357 35 326 6.4 9.7 0.00 0.00 0.00 12 1010.9
20260509190853 35 259 4.8 4.8 0.00 0.00 0.00 12 1011.1
20260509190350 35 286 6.4 9.7 0.00 0.00 0.00 12 1011.3
20260509185848 35 307 9.7 12.9 0.00 0.00 0.00 11 1011.2
20260509185344 35 305 4.8 4.8 0.00 0.00 0.00 11 1011.3
20260509184842 35 14 3.2 3.2 0.00 0.00 0.00 12 1011.4
20260509184338 35 268 4.8 9.7 0.00 0.00 0.00 12 1011.6
20260509183835 34 314 1.6 3.2 0.00 0.00 0.00 13 1011.4
20260509183330 34 211 1.6 1.6 0.00 0.00 0.00 13 1011.4
20260509182827 33 124 1.6 1.6 0.00 0.00 0.00 13 1011.7
20260509182324 33 246 0.0 0.0 0.00 0.00 0.00 14 1011.8
20260509181821 33 357 1.6 1.6 0.00 0.00 0.00 15 1012.0
20260509181318 33 324 1.6 1.6 0.00 0.00 0.00 15 1012.2
20260509180815 33 297 4.8 3.2 0.00 0.00 0.00 15 1012.2
20260509180312 33 2 3.2 4.8 0.00 0.00 0.00 15 1012.1
20260509175808 32 25 0.0 0.0 0.00 0.00 0.00 15 1012.5
20260509175306 32 256 1.6 1.6 0.00 0.00 0.00 16 1012.4
20260509174801 32 192 1.6 1.6 0.00 0.00 0.00 16 1012.2
20260509174256 33 203 3.2 3.2 0.00 0.00 0.00 16 1012.5
20260509173752 32 331 1.6 1.6 0.00 0.00 0.00 16 1012.5
20260509173248 32 197 3.2 3.2 0.00 0.00 0.00 16 1012.5
20260509172744 32 168 0.0 1.6 0.00 0.00 0.00 17 1012.5
20260509172241 31 35 1.6 1.6 0.00 0.00 0.00 17 1012.5
20260509171736 31 20 1.6 1.6 0.00 0.00 0.00 18 1012.6
20260509171233 31 245 6.4 9.7 0.00 0.00 0.00 16 1012.8
20260509170730 32 1 4.8 3.2 0.00 0.00 0.00 16 1012.5
20260509170226 32 313 1.6 1.6 0.00 0.00 0.00 17 1012.7
20260509165724 31 223 1.6 1.6 0.00 0.00 0.00 17 1012.5
20260509165219 31 346 1.6 1.6 0.00 0.00 0.00 17 1012.6
20260509164716 31 67 0.0 0.0 0.00 0.00 0.00 17 1012.6
20260509164211 30 233 0.0 0.0 0.00 0.00 0.00 17 1012.6
20260509163709 31 149 1.6 1.6 0.00 0.00 0.00 17 1012.7
20260509163206 30 72 0.0 0.0 0.00 0.00 0.00 19 1012.6
20260509162703 30 105 1.6 1.6 0.00 0.00 0.00 18 1012.7
20260509162159 30 225 1.6 1.6 0.00 0.00 0.00 18 1012.7
20260509161654 30 184 1.6 1.6 0.00 0.00 0.00 18 1012.7
20260509161150 30 226 0.0 0.0 0.00 0.00 0.00 19 1012.7
20260509160646 30 185 1.6 3.2 0.00 0.00 0.00 19 1012.7
20260509160141 29 264 3.2 3.2 0.00 0.00 0.00 20 1012.9
20260509155638 28 77 0.0 0.0 0.00 0.00 0.00 20 1012.7
20260509155134 28 129 3.2 3.2 0.00 0.00 0.00 20 1012.9
20260509154630 28 200 1.6 3.2 0.00 0.00 0.00 20 1012.8
20260509154127 28 244 3.2 3.2 0.00 0.00 0.00 20 1012.8
20260509153624 28 137 0.0 0.0 0.00 0.00 0.00 20 1012.9
20260509153121 28 178 1.6 1.6 0.00 0.00 0.00 20 1013.0
20260509152617 28 113 1.6 1.6 0.00 0.00 0.00 20 1012.8
20260509152114 27 105 0.0 0.0 0.00 0.00 0.00 24 1013.0
20260509151610 27 102 1.6 1.6 0.00 0.00 0.00 26 1012.9
20260509151109 27 74 0.0 0.0 0.00 0.00 0.00 28 1012.8
20260509150606 26 74 0.0 0.0 0.00 0.00 0.00 29 1012.9
20260509150104 25 71 0.0 1.6 0.00 0.00 0.00 30 1013.0
20260509145559 25 84 0.0 1.6 0.00 0.00 0.00 30 1013.0
20260509145055 24 73 0.0 0.0 0.00 0.00 0.00 31 1012.9
20260509144552 25 68 0.0 1.6 0.00 0.00 0.00 32 1012.9
20260509144049 24 78 0.0 1.6 0.00 0.00 0.00 32 1013.0
20260509143546 23 81 0.0 0.0 0.00 0.00 0.00 33 1012.9
20260509143044 22 82 1.6 1.6 0.00 0.00 0.00 34 1012.9
20260509142539 22 80 0.0 0.0 0.00 0.00 0.00 35 1013.0
20260509142035 22 63 1.6 1.6 0.00 0.00 0.00 34 1012.8
20260509141531 22 78 1.6 1.6 0.00 0.00 0.00 33 1012.8
20260509141028 21 38 0.0 0.0 0.00 0.00 0.00 35 1012.8
20260509140525 21 132 1.6 1.6 0.00 0.00 0.00 35 1012.7
20260509140023 21 85 0.0 0.0 0.00 0.00 0.00 37 1012.8
20260509135520 20 82 3.2 3.2 0.00 0.00 0.00 35 1012.7
20260509135017 20 88 0.0 0.0 0.00 0.00 0.00 36 1012.8
20260509134514 20 74 0.0 0.0 0.00 0.00 0.00 37 1012.6
20260509134012 18 72 1.6 1.6 0.00 0.00 0.00 38 1012.5
20260509133508 18 74 1.6 1.6 0.00 0.00 0.00 38 1012.5
20260509133007 18 68 3.2 3.2 0.00 0.00 0.00 39 1012.1
20260509132505 18 81 3.2 3.2 0.00 0.00 0.00 39 1012.5
20260509132002 17 79 1.6 3.2 0.00 0.00 0.00 40 1012.4
20260509131458 17 87 1.6 1.6 0.00 0.00 0.00 39 1012.2
20260509130955 17 94 0.0 0.0 0.00 0.00 0.00 41 1012.2
20260509130450 16 112 0.0 0.0 0.00 0.00 0.00 42 1012.2
20260509125948 15 116 1.6 1.6 0.00 0.00 0.00 45 1012.4
20260509125444 15 344 0.0 0.0 0.00 0.00 0.00 48 1012.2
20260509124940 15 95 0.0 1.6 0.00 0.00 0.00 48 1011.8
20260509124438 15 80 0.0 0.0 0.00 0.00 0.00 50 1012.2
20260509123935 15 79 1.6 1.6 0.00 0.00 0.00 49 1011.9
20260509123432 15 51 1.6 1.6 0.00 0.00 0.00 49 1011.9
20260509122928 15 96 0.0 0.0 0.00 0.00 0.00 48 1011.8
20260509122425 15 96 0.0 0.0 0.00 0.00 0.00 47 1012.0
20260509121921 15 97 0.0 0.0 0.00 0.00 0.00 46 1011.7
20260509121419 15 96 0.0 0.0 0.00 0.00 0.00 46 1011.7
20260509120917 15 101 0.0 0.0 0.00 0.00 0.00 44 1011.5
20260509120414 15 101 0.0 1.6 0.00 0.00 0.00 45 1011.5
20260509115912 15 101 0.0 0.0 0.00 0.00 0.00 46 1011.5
20260509115409 15 101 0.0 0.0 0.00 0.00 0.00 46 1011.6
20260509114907 15 84 0.0 0.0 0.00 0.00 0.00 47 1011.6
20260509114405 16 84 0.0 0.0 0.00 0.00 0.00 46 1011.6
20260509113904 16 84 0.0 0.0 0.00 0.00 0.00 45 1011.5
20260509113401 16 84 0.0 0.0 0.00 0.00 0.00 44 1011.3
20260509112857 16 84 0.0 0.0 0.00 0.00 0.00 44 1011.6
20260509112354 16 84 0.0 0.0 0.00 0.00 0.00 44 1011.7
20260509111852 16 84 0.0 0.0 0.00 0.00 0.00 43 1011.5
20260509111348 16 84 0.0 0.0 0.00 0.00 0.00 43 1011.4
20260509110847 16 84 0.0 0.0 0.00 0.00 0.00 42 1011.2
20260509110342 16 84 0.0 0.0 0.00 0.00 0.00 41 1011.4
20260509105841 16 84 0.0 0.0 0.00 0.00 0.00 42 1011.4
20260509105339 16 84 0.0 0.0 0.00 0.00 0.00 42 1011.5
20260509104835 17 84 0.0 0.0 0.00 0.00 0.00 41 1011.5
20260509104331 17 84 0.0 0.0 0.00 0.00 0.00 41 1011.6
20260509103829 17 85 0.0 0.0 0.00 0.00 0.00 40 1011.4
20260509103326 17 85 0.0 0.0 0.00 0.00 0.00 39 1011.5
20260509102825 17 85 0.0 0.0 0.00 0.00 0.00 39 1011.3
20260509102322 17 85 0.0 0.0 0.00 0.00 0.00 38 1011.4
20260509101818 17 85 0.0 0.0 0.00 0.00 0.00 37 1011.4
20260509101314 17 85 0.0 0.0 0.00 0.00 0.00 36 1011.3
20260509100812 18 85 0.0 0.0 0.00 0.00 0.00 36 1011.6
20260509100309 18 85 0.0 0.0 0.00 0.00 0.00 35 1011.5
20260509095806 18 85 1.6 1.6 0.00 0.00 0.00 34 1011.4
20260509095305 18 84 0.0 0.0 0.00 0.00 0.00 34 1011.7
20260509094800 18 96 0.0 1.6 0.00 0.00 0.00 35 1011.3
20260509094256 17 84 0.0 1.6 0.00 0.00 0.00 36 1011.4
20260509093754 17 111 0.0 0.0 0.00 0.00 0.00 38 1011.3
20260509093251 18 110 0.0 0.0 0.00 0.00 0.00 37 1011.5
20260509092750 18 111 0.0 0.0 0.00 0.00 0.00 37 1011.4
20260509092247 18 111 0.0 0.0 0.00 0.00 0.00 38 1011.2
20260509091745 18 111 0.0 0.0 0.00 0.00 0.00 37 1011.5
20260509091241 17 77 1.6 1.6 0.00 0.00 0.00 40 1011.5
20260509090739 18 77 0.0 0.0 0.00 0.00 0.00 39 1011.3
20260509090236 18 77 0.0 0.0 0.00 0.00 0.00 39 1011.2
20260509085734 18 77 0.0 0.0 0.00 0.00 0.00 38 1011.4
20260509085231 18 77 0.0 0.0 0.00 0.00 0.00 37 1011.5
20260509084727 19 77 1.6 1.6 0.00 0.00 0.00 36 1011.6
20260509084224 19 76 0.0 0.0 0.00 0.00 0.00 35 1011.4
20260509083722 19 74 0.0 0.0 0.00 0.00 0.00 34 1011.2
20260509083218 20 71 0.0 0.0 0.00 0.00 0.00 33 1011.4
20260509082715 20 71 0.0 0.0 0.00 0.00 0.00 33 1011.3
20260509082212 20 91 1.6 1.6 0.00 0.00 0.00 33 1011.3
20260509081709 20 106 3.2 3.2 0.00 0.00 0.00 32 1011.1
20260509081206 20 112 0.0 0.0 0.00 0.00 0.00 33 1011.4
20260509080704 20 111 1.6 1.6 0.00 0.00 0.00 33 1011.4
20260509080202 20 99 1.6 1.6 0.00 0.00 0.00 33 1011.2
20260509075700 20 107 3.2 3.2 0.00 0.00 0.00 35 1011.5
20260509075157 20 104 0.0 0.0 0.00 0.00 0.00 34 1011.3
20260509074654 20 83 1.6 3.2 0.00 0.00 0.00 35 1011.5
20260509074150 19 81 1.6 1.6 0.00 0.00 0.00 35 1011.5
20260509073647 19 102 0.0 0.0 0.00 0.00 0.00 37 1011.4
20260509073144 19 102 0.0 0.0 0.00 0.00 0.00 37 1011.3
20260509072641 20 106 0.0 0.0 0.00 0.00 0.00 35 1011.4
20260509072137 20 106 0.0 0.0 0.00 0.00 0.00 34 1011.3
20260509071634 20 106 0.0 0.0 0.00 0.00 0.00 35 1011.4
20260509071131 20 107 0.0 0.0 0.00 0.00 0.00 35 1011.3
20260509070628 20 107 0.0 0.0 0.00 0.00 0.00 35 1011.3
20260509070124 20 107 0.0 0.0 0.00 0.00 0.00 33 1011.3
20260509065620 20 113 0.0 0.0 0.00 0.00 0.00 34 1011.3
20260509065116 20 113 0.0 0.0 0.00 0.00 0.00 33 1011.3
20260509064614 20 114 0.0 0.0 0.00 0.00 0.00 34 1011.3
20260509064112 20 110 0.0 0.0 0.00 0.00 0.00 33 1011.4
20260509063608 20 110 1.6 1.6 0.00 0.00 0.00 32 1011.1
20260509063105 20 110 0.0 0.0 0.00 0.00 0.00 32 1011.2
20260509062602 21 110 0.0 0.0 0.00 0.00 0.00 32 1011.2
20260509062059 21 110 0.0 0.0 0.00 0.00 0.00 31 1011.0
20260509061556 21 110 0.0 0.0 0.00 0.00 0.00 32 1011.0
20260509061053 21 110 0.0 0.0 0.00 0.00 0.00 31 1011.1
20260509060551 21 110 0.0 0.0 0.00 0.00 0.00 31 1011.0
20260509060046 21 110 0.0 0.0 0.00 0.00 0.00 30 1011.1
20260509055542 22 111 0.0 0.0 0.00 0.00 0.00 30 1010.9
20260509055038 22 111 0.0 0.0 0.00 0.00 0.00 29 1011.0
20260509054535 22 111 0.0 0.0 0.00 0.00 0.00 28 1011.0
20260509054033 22 111 0.0 0.0 0.00 0.00 0.00 27 1011.0
20260509053531 22 112 3.2 3.2 0.00 0.00 0.00 28 1011.0
20260509053028 22 255 0.0 0.0 0.00 0.00 0.00 27 1011.1
20260509052525 22 255 0.0 0.0 0.00 0.00 0.00 27 1010.7
20260509052023 23 256 0.0 0.0 0.00 0.00 0.00 27 1010.9
20260509051521 23 256 0.0 1.6 0.00 0.00 0.00 26 1010.9
20260509051018 23 256 0.0 0.0 0.00 0.00 0.00 26 1010.9
20260509050515 23 256 0.0 1.6 0.00 0.00 0.00 27 1010.9
20260509050011 23 256 1.6 1.6 0.00 0.00 0.00 25 1010.6
20260509045508 23 256 0.0 0.0 0.00 0.00 0.00 25 1010.9
20260509045006 24 256 0.0 0.0 0.00 0.00 0.00 24 1010.7
20260509044504 24 256 0.0 0.0 0.00 0.00 0.00 23 1010.5
20260509044000 25 256 0.0 0.0 0.00 0.00 0.00 23 1010.7
20260509043456 25 256 1.6 0.0 0.00 0.00 0.00 22 1010.7
20260509042951 25 256 0.0 0.0 0.00 0.00 0.00 22 1010.3
20260509042449 25 256 0.0 0.0 0.00 0.00 0.00 22 1010.4
20260509041944 25 256 0.0 0.0 0.00 0.00 0.00 21 1010.2
20260509041442 25 256 0.0 0.0 0.00 0.00 0.00 21 1010.4
20260509040940 25 256 0.0 1.6 0.00 0.00 0.00 20 1010.3
20260509040438 26 256 0.0 0.0 0.00 0.00 0.00 20 1010.3
20260509035934 26 256 0.0 0.0 0.00 0.00 0.00 19 1010.4
20260509035431 26 256 0.0 0.0 0.00 0.00 0.00 19 1010.2
20260509034927 26 256 0.0 0.0 0.00 0.00 0.00 18 1010.2
20260509034425 26 256 0.0 0.0 0.00 0.00 0.00 18 1010.0
20260509033922 26 255 0.0 0.0 0.00 0.00 0.00 17 1009.9
20260509033419 27 256 0.0 0.0 0.00 0.00 0.00 17 1009.9
20260509032915 27 255 0.0 0.0 0.00 0.00 0.00 17 1009.8
20260509032413 27 254 0.0 0.0 0.00 0.00 0.00 17 1009.8
20260509031911 27 254 0.0 0.0 0.00 0.00 0.00 17 1010.1
20260509031408 27 253 0.0 0.0 0.00 0.00 0.00 16 1009.8
20260509030905 27 245 0.0 0.0 0.00 0.00 0.00 16 1010.0
20260509030404 28 320 0.0 0.0 0.00 0.00 0.00 16 1009.6
20260509025900 28 322 0.0 0.0 0.00 0.00 0.00 16 1009.5
20260509025355 28 325 0.0 0.0 0.00 0.00 0.00 15 1009.6
20260509024851 28 328 0.0 0.0 0.00 0.00 0.00 15 1009.5
20260509024347 29 332 1.6 3.2 0.00 0.00 0.00 15 1009.5
20260509023845 30 314 1.6 1.6 0.00 0.00 0.00 14 1009.3
20260509023342 30 328 1.6 1.6 0.00 0.00 0.00 14 1009.1
20260509022838 30 313 0.0 1.6 0.00 0.00 0.00 14 1009.1
20260509022336 30 294 1.6 1.6 0.00 0.00 0.00 14 1009.1
20260509021832 30 331 1.6 1.6 0.00 0.00 0.00 14 1009.2
20260509021329 31 303 3.2 4.8 0.00 0.00 0.00 13 1009.2
20260509020827 31 306 1.6 1.6 0.00 0.00 0.00 13 1009.1
20260509020325 31 312 4.8 4.8 0.00 0.00 0.00 13 1009.0
20260509015822 31 320 4.8 4.8 0.00 0.00 0.00 13 1009.0
20260509015320 31 105 3.2 3.2 0.00 0.00 0.00 12 1008.9
20260509014817 32 311 8.0 11.3 0.00 0.00 0.00 12 1008.8
20260509014314 32 339 1.6 1.6 0.00 0.00 0.00 12 1008.8
20260509013811 32 312 1.6 3.2 0.00 0.00 0.00 12 1008.6
20260509013307 32 296 6.4 9.7 0.00 0.00 0.00 11 1008.8
20260509012803 32 3 3.2 3.2 0.00 0.00 0.00 12 1008.9
20260509012300 33 314 4.8 9.7 0.00 0.00 0.00 11 1008.6
20260509011757 33 311 3.2 4.8 0.00 0.00 0.00 11 1008.8
20260509011254 33 301 4.8 4.8 0.00 0.00 0.00 11 1008.6
20260509010752 33 311 4.8 4.8 0.00 0.00 0.00 11 1008.8
20260509010248 33 287 8.0 12.9 0.00 0.00 0.00 11 1008.8
20260509005746 33 343 1.6 1.6 0.00 0.00 0.00 12 1008.8
20260509005244 33 311 4.8 4.8 0.00 0.00 0.00 11 1009.0
20260509004743 33 29 1.6 3.2 0.00 0.00 0.00 11 1008.8
20260509004241 33 264 6.4 8.0 0.00 0.00 0.00 10 1009.0
20260509003739 33 295 8.0 9.7 0.00 0.00 0.00 10 1008.8
20260509003236 34 299 8.0 12.9 0.00 0.00 0.00 11 1008.8
20260509002733 34 272 6.4 9.7 0.00 0.00 0.00 11 1008.9
20260509002231 34 307 1.6 1.6 0.00 0.00 0.00 11 1008.8
20260509001729 34 0 1.6 1.6 0.00 0.00 0.00 11 1008.9
20260509001224 35 277 9.7 11.3 0.00 0.00 0.00 10 1008.8
20260509000722 35 322 4.8 4.8 0.00 0.00 0.00 10 1008.9
20260509000219 35 295 8.0 12.9 0.00 0.00 0.00 10 1008.9
20260508235716 35 277 8.0 12.9 0.00 0.00 0.00 10 1008.9
20260508235212 34 303 8.0 11.3 0.00 0.00 0.00 11 1008.8
20260508234710 35 307 8.0 9.7 0.00 0.00 0.00 10 1008.9
20260508234206 35 329 3.2 3.2 0.00 0.00 0.00 11 1009.0
20260508233706 35 336 1.6 3.2 0.00 0.00 0.00 11 1009.1
20260508233203 34 357 3.2 3.2 0.00 0.00 0.00 11 1008.9
20260508232700 34 292 6.4 8.0 0.00 0.00 0.00 11 1009.0
20260508232156 34 342 4.8 4.8 0.00 0.00 0.00 11 1009.1
20260508231655 35 353 9.7 16.1 0.00 0.00 0.00 11 1009.0
20260508231151 35 356 1.6 1.6 0.00 0.00 0.00 11 1009.1
20260508230648 34 298 6.4 9.7 0.00 0.00 0.00 11 1009.1
20260508230144 35 308 9.7 11.3 0.00 0.00 0.00 11 1009.5
20260508225643 35 317 3.2 3.2 0.00 0.00 0.00 11 1009.2
20260508225138 34 319 1.6 3.2 0.00 0.00 0.00 11 1009.5
20260508224636 35 302 9.7 12.9 0.00 0.00 0.00 11 1009.6
20260508224134 35 320 6.4 8.0 0.00 0.00 0.00 11 1009.5
20260508223631 34 328 4.8 8.0 0.00 0.00 0.00 12 1009.7
20260508223128 35 264 8.0 9.7 0.00 0.00 0.00 11 1009.5
20260508222626 35 237 8.0 14.5 0.00 0.00 0.00 12 1009.3
20260508222123 35 34 1.6 1.6 0.00 0.00 0.00 12 1009.7
20260508221619 35 352 12.9 17.7 0.00 0.00 0.00 12 1009.9
20260508221115 34 294 3.2 3.2 0.00 0.00 0.00 12 1009.7
20260508220611 35 303 8.0 11.3 0.00 0.00 0.00 12 1009.7
20260508220108 34 318 8.0 12.9 0.00 0.00 0.00 12 1009.9
20260508215605 34 348 4.8 8.0 0.00 0.00 0.00 12 1010.1
20260508215101 34 308 4.8 8.0 0.00 0.00 0.00 13 1010.0
20260508214559 35 322 6.4 16.1 0.00 0.00 0.00 12 1010.2
20260508214055 34 4 3.2 3.2 0.00 0.00 0.00 13 1010.2
20260508213552 35 297 8.0 9.7 0.00 0.00 0.00 12 1010.3
20260508213048 34 280 8.0 11.3 0.00 0.00 0.00 13 1010.5
20260508212545 33 57 4.8 4.8 0.00 0.00 0.00 12 1010.4
20260508212041 34 304 11.3 14.5 0.00 0.00 0.00 12 1010.4
20260508211537 33 207 6.4 8.0 0.00 0.00 0.00 12 1010.5
20260508211033 33 298 6.4 11.3 0.00 0.00 0.00 13 1010.6
20260508210530 33 295 6.4 9.7 0.00 0.00 0.00 13 1011.0
20260508210028 33 282 6.4 14.5 0.00 0.00 0.00 13 1010.6
20260508205524 33 321 9.7 11.3 0.00 0.00 0.00 13 1010.9
20260508205020 33 292 6.4 9.7 0.00 0.00 0.00 13 1010.9
20260508204518 33 295 9.7 16.1 0.00 0.00 0.00 13 1010.9
20260508204014 33 306 9.7 12.9 0.00 0.00 0.00 13 1011.0